Year,Month,Day,Hour,Minute,Value (Times are PST for temperature in C)
2016,07,19,00,00,17.30
2016,07,19,00,01,17.30
2016,07,19,00,02,17.20
2016,07,19,00,03,17.20
2016,07,19,00,04,17.10
2016,07,19,00,05,17.00
2016,07,19,00,06,17.00
2016,07,19,00,07,16.90
2016,07,19,00,08,16.90
2016,07,19,00,09,16.90
2016,07,19,00,10,16.80
2016,07,19,00,11,16.80
2016,07,19,00,12,16.80
2016,07,19,00,13,16.80
2016,07,19,00,14,16.80
2016,07,19,00,15,16.70
2016,07,19,00,16,16.70
2016,07,19,00,17,16.70
2016,07,19,00,18,16.70
2016,07,19,00,19,16.70
2016,07,19,00,20,16.70
2016,07,19,00,21,16.70
2016,07,19,00,22,16.60
2016,07,19,00,23,16.60
2016,07,19,00,24,16.60
2016,07,19,00,25,16.70
2016,07,19,00,26,16.70
2016,07,19,00,27,16.70
2016,07,19,00,28,16.70
2016,07,19,00,29,16.70
2016,07,19,00,30,16.70
2016,07,19,00,31,16.70
2016,07,19,00,32,16.70
2016,07,19,00,33,16.70
2016,07,19,00,34,16.70
2016,07,19,00,35,16.70
2016,07,19,00,36,16.70
2016,07,19,00,37,16.70
2016,07,19,00,38,16.60
2016,07,19,00,39,16.60
2016,07,19,00,40,16.60
2016,07,19,00,41,16.60
2016,07,19,00,42,16.50
2016,07,19,00,43,16.50
2016,07,19,00,44,16.60
2016,07,19,00,45,16.60
2016,07,19,00,46,16.60
2016,07,19,00,47,16.60
2016,07,19,00,48,16.60
2016,07,19,00,49,16.60
2016,07,19,00,50,16.50
2016,07,19,00,51,16.50
2016,07,19,00,52,16.50
2016,07,19,00,53,16.50
2016,07,19,00,54,16.50
2016,07,19,00,55,16.40
2016,07,19,00,56,16.40
2016,07,19,00,57,16.40
2016,07,19,00,58,16.40
2016,07,19,00,59,16.30
2016,07,19,01,00,16.30
2016,07,19,01,01,16.30
2016,07,19,01,02,16.20
2016,07,19,01,03,16.20
2016,07,19,01,04,16.20
2016,07,19,01,05,16.20
2016,07,19,01,06,16.20
2016,07,19,01,07,16.20
2016,07,19,01,08,16.20
2016,07,19,01,09,16.20
2016,07,19,01,10,16.20
2016,07,19,01,11,16.20
2016,07,19,01,12,16.20
2016,07,19,01,13,16.20
2016,07,19,01,14,16.20
2016,07,19,01,15,16.20
2016,07,19,01,16,16.20
2016,07,19,01,17,16.20
2016,07,19,01,18,16.20
2016,07,19,01,19,16.30
2016,07,19,01,20,16.30
2016,07,19,01,21,16.30
2016,07,19,01,22,16.30
2016,07,19,01,23,16.30
2016,07,19,01,24,16.30
2016,07,19,01,25,16.20
2016,07,19,01,26,16.20
2016,07,19,01,27,16.20
2016,07,19,01,28,16.20
2016,07,19,01,29,16.20
2016,07,19,01,30,16.20
2016,07,19,01,31,16.10
2016,07,19,01,32,16.10
2016,07,19,01,33,16.10
2016,07,19,01,34,16.00
2016,07,19,01,35,16.00
2016,07,19,01,36,16.00
2016,07,19,01,37,15.90
2016,07,19,01,38,15.90
2016,07,19,01,39,15.90
2016,07,19,01,40,15.90
2016,07,19,01,41,15.90
2016,07,19,01,42,15.80
2016,07,19,01,43,15.80
2016,07,19,01,44,15.80
2016,07,19,01,45,15.70
2016,07,19,01,46,15.70
2016,07,19,01,47,15.70
2016,07,19,01,48,15.60
2016,07,19,01,49,15.60
2016,07,19,01,50,15.50
2016,07,19,01,51,15.50
2016,07,19,01,52,15.50
2016,07,19,01,53,15.50
2016,07,19,01,54,15.50
2016,07,19,01,55,15.40
2016,07,19,01,56,15.40
2016,07,19,01,57,15.40
2016,07,19,01,58,15.40
2016,07,19,01,59,15.40
2016,07,19,02,00,15.30
2016,07,19,02,01,15.30
2016,07,19,02,02,15.30
2016,07,19,02,03,15.30
2016,07,19,02,04,15.30
2016,07,19,02,05,15.20
2016,07,19,02,06,15.20
2016,07,19,02,07,15.20
2016,07,19,02,08,15.20
2016,07,19,02,09,15.10
2016,07,19,02,10,15.10
2016,07,19,02,11,15.10
2016,07,19,02,12,15.10
2016,07,19,02,13,15.00
2016,07,19,02,14,15.00
2016,07,19,02,15,15.00
2016,07,19,02,16,15.00
2016,07,19,02,17,15.00
2016,07,19,02,18,14.90
2016,07,19,02,19,14.90
2016,07,19,02,20,14.90
2016,07,19,02,21,14.90
2016,07,19,02,22,14.90
2016,07,19,02,23,14.90
2016,07,19,02,24,14.90
2016,07,19,02,25,14.90
2016,07,19,02,26,14.90
2016,07,19,02,27,14.80
2016,07,19,02,28,14.80
2016,07,19,02,29,14.80
2016,07,19,02,30,14.80
2016,07,19,02,31,14.80
2016,07,19,02,32,14.80
2016,07,19,02,33,14.80
2016,07,19,02,34,14.80
2016,07,19,02,35,14.80
2016,07,19,02,36,14.80
2016,07,19,02,37,14.80
2016,07,19,02,38,14.80
2016,07,19,02,39,14.80
2016,07,19,02,40,14.80
2016,07,19,02,41,14.80
2016,07,19,02,42,14.80
2016,07,19,02,43,14.80
2016,07,19,02,44,14.80
2016,07,19,02,45,14.80
2016,07,19,02,46,14.80
2016,07,19,02,47,14.80
2016,07,19,02,48,14.80
2016,07,19,02,49,14.80
2016,07,19,02,50,14.90
2016,07,19,02,51,14.90
2016,07,19,02,52,14.90
2016,07,19,02,53,14.90
2016,07,19,02,54,14.90
2016,07,19,02,55,14.90
2016,07,19,02,56,14.90
2016,07,19,02,57,14.90
2016,07,19,02,58,14.90
2016,07,19,02,59,14.90
2016,07,19,03,00,14.90
2016,07,19,03,01,14.90
2016,07,19,03,02,14.90
2016,07,19,03,03,14.90
2016,07,19,03,04,14.90
2016,07,19,03,05,14.90
2016,07,19,03,06,14.90
2016,07,19,03,07,14.90
2016,07,19,03,08,14.90
2016,07,19,03,09,14.90
2016,07,19,03,10,14.90
2016,07,19,03,11,15.00
2016,07,19,03,12,15.00
2016,07,19,03,13,15.00
2016,07,19,03,14,15.10
2016,07,19,03,15,15.10
2016,07,19,03,16,15.20
2016,07,19,03,17,15.20
2016,07,19,03,18,15.30
2016,07,19,03,19,15.30
2016,07,19,03,20,15.30
2016,07,19,03,21,15.40
2016,07,19,03,22,15.40
2016,07,19,03,23,15.40
2016,07,19,03,24,15.50
2016,07,19,03,25,15.50
2016,07,19,03,26,15.60
2016,07,19,03,27,15.60
2016,07,19,03,28,15.60
2016,07,19,03,29,15.60
2016,07,19,03,30,15.60
2016,07,19,03,31,15.70
2016,07,19,03,32,15.70
2016,07,19,03,33,15.70
2016,07,19,03,34,15.70
2016,07,19,03,35,15.70
2016,07,19,03,36,15.70
2016,07,19,03,37,15.70
2016,07,19,03,38,15.70
2016,07,19,03,39,15.70
2016,07,19,03,40,15.70
2016,07,19,03,41,15.70
2016,07,19,03,42,15.70
2016,07,19,03,43,15.70
2016,07,19,03,44,15.70
2016,07,19,03,45,15.70
2016,07,19,03,46,15.70
2016,07,19,03,47,15.70
2016,07,19,03,48,15.70
2016,07,19,03,49,15.70
2016,07,19,03,50,15.70
2016,07,19,03,51,15.70
2016,07,19,03,52,15.70
2016,07,19,03,53,15.80
2016,07,19,03,54,15.80
2016,07,19,03,55,15.80
2016,07,19,03,56,15.80
2016,07,19,03,57,15.80
2016,07,19,03,58,15.90
2016,07,19,03,59,15.90
2016,07,19,04,00,15.90
2016,07,19,04,01,15.90
2016,07,19,04,02,15.90
2016,07,19,04,03,15.90
2016,07,19,04,04,15.90
2016,07,19,04,05,15.90
2016,07,19,04,06,15.90
2016,07,19,04,07,15.90
2016,07,19,04,08,15.90
2016,07,19,04,09,15.90
2016,07,19,04,10,15.90
2016,07,19,04,11,15.90
2016,07,19,04,12,15.90
2016,07,19,04,13,15.90
2016,07,19,04,14,15.90
2016,07,19,04,15,15.90
2016,07,19,04,16,15.90
2016,07,19,04,17,15.90
2016,07,19,04,18,15.90
2016,07,19,04,19,15.90
2016,07,19,04,20,15.90
2016,07,19,04,21,15.90
2016,07,19,04,22,15.90
2016,07,19,04,23,15.90
2016,07,19,04,24,15.90
2016,07,19,04,25,15.90
2016,07,19,04,26,15.90
2016,07,19,04,27,15.90
2016,07,19,04,28,15.90
2016,07,19,04,29,15.80
2016,07,19,04,30,15.80
2016,07,19,04,31,15.80
2016,07,19,04,32,15.80
2016,07,19,04,33,15.80
2016,07,19,04,34,15.70
2016,07,19,04,35,15.70
2016,07,19,04,36,15.70
2016,07,19,04,37,15.60
2016,07,19,04,38,15.60
2016,07,19,04,39,15.60
2016,07,19,04,40,15.60
2016,07,19,04,41,15.50
2016,07,19,04,42,15.50
2016,07,19,04,43,15.40
2016,07,19,04,44,15.40
2016,07,19,04,45,15.40
2016,07,19,04,46,15.30
2016,07,19,04,47,15.30
2016,07,19,04,48,15.30
2016,07,19,04,49,15.30
2016,07,19,04,50,15.20
2016,07,19,04,51,15.20
2016,07,19,04,52,15.20
2016,07,19,04,53,15.20
2016,07,19,04,54,15.10
2016,07,19,04,55,15.10
2016,07,19,04,56,15.00
2016,07,19,04,57,15.00
2016,07,19,04,58,14.90
2016,07,19,04,59,14.90
2016,07,19,05,00,14.90
2016,07,19,05,01,14.90
2016,07,19,05,02,14.90
2016,07,19,05,03,14.90
2016,07,19,05,04,14.90
2016,07,19,05,05,14.90
2016,07,19,05,06,14.90
2016,07,19,05,07,14.90
2016,07,19,05,08,14.90
2016,07,19,05,09,14.90
2016,07,19,05,10,14.90
2016,07,19,05,11,14.90
2016,07,19,05,12,15.00
2016,07,19,05,13,15.00
2016,07,19,05,14,15.00
2016,07,19,05,15,15.10
2016,07,19,05,16,15.10
2016,07,19,05,17,15.10
2016,07,19,05,18,15.10
2016,07,19,05,19,15.10
2016,07,19,05,20,15.10
2016,07,19,05,21,15.10
2016,07,19,05,22,15.20
2016,07,19,05,23,15.20
2016,07,19,05,24,15.20
2016,07,19,05,25,15.20
2016,07,19,05,26,15.30
2016,07,19,05,27,15.30
2016,07,19,05,28,15.40
2016,07,19,05,29,15.40
2016,07,19,05,30,15.40
2016,07,19,05,31,15.40
2016,07,19,05,32,15.40
2016,07,19,05,33,15.40
2016,07,19,05,34,15.40
2016,07,19,05,35,15.40
2016,07,19,05,36,15.40
2016,07,19,05,37,15.40
2016,07,19,05,38,15.40
2016,07,19,05,39,15.40
2016,07,19,05,40,15.30
2016,07,19,05,41,15.30
2016,07,19,05,42,15.30
2016,07,19,05,43,15.30
2016,07,19,05,44,15.40
2016,07,19,05,45,15.40
2016,07,19,05,46,15.40
2016,07,19,05,47,15.40
2016,07,19,05,48,15.40
2016,07,19,05,49,15.50
2016,07,19,05,50,15.50
2016,07,19,05,51,15.50
2016,07,19,05,52,15.50
2016,07,19,05,53,15.50
2016,07,19,05,54,15.50
2016,07,19,05,55,15.50
2016,07,19,05,56,15.50
2016,07,19,05,57,15.50
2016,07,19,05,58,15.50
2016,07,19,05,59,15.50
2016,07,19,06,00,15.40
2016,07,19,06,01,15.40
2016,07,19,06,02,15.40
2016,07,19,06,03,15.50
2016,07,19,06,04,15.50
2016,07,19,06,05,15.50
2016,07,19,06,06,15.60
2016,07,19,06,07,15.60
2016,07,19,06,08,15.60
2016,07,19,06,09,15.60
2016,07,19,06,10,15.70
2016,07,19,06,11,15.70
2016,07,19,06,12,15.70
2016,07,19,06,13,15.70
2016,07,19,06,14,15.70
2016,07,19,06,15,15.70
2016,07,19,06,16,15.70
2016,07,19,06,17,15.70
2016,07,19,06,18,15.70
2016,07,19,06,19,15.70
2016,07,19,06,20,15.70
2016,07,19,06,21,15.70
2016,07,19,06,22,15.70
2016,07,19,06,23,15.70
2016,07,19,06,24,15.70
2016,07,19,06,25,15.70
2016,07,19,06,26,15.70
2016,07,19,06,27,15.70
2016,07,19,06,28,15.70
2016,07,19,06,29,15.70
2016,07,19,06,30,15.70
2016,07,19,06,31,15.70
2016,07,19,06,32,15.70
2016,07,19,06,33,15.70
2016,07,19,06,34,15.70
2016,07,19,06,35,15.70
2016,07,19,06,36,15.70
2016,07,19,06,37,15.70
2016,07,19,06,38,15.70
2016,07,19,06,39,15.70
2016,07,19,06,40,15.80
2016,07,19,06,41,15.80
2016,07,19,06,42,15.70
2016,07,19,06,43,15.70
2016,07,19,06,44,15.70
2016,07,19,06,45,15.70
2016,07,19,06,46,15.70
2016,07,19,06,47,15.70
2016,07,19,06,48,15.70
2016,07,19,06,49,15.70
2016,07,19,06,50,15.70
2016,07,19,06,51,15.70
2016,07,19,06,52,15.70
2016,07,19,06,53,15.70
2016,07,19,06,54,15.70
2016,07,19,06,55,15.70
2016,07,19,06,56,15.70
2016,07,19,06,57,15.70
2016,07,19,06,58,15.80
2016,07,19,06,59,15.80
2016,07,19,07,00,15.80
2016,07,19,07,01,15.80
2016,07,19,07,02,15.80
2016,07,19,07,03,15.80
2016,07,19,07,04,15.80
2016,07,19,07,05,15.80
2016,07,19,07,06,15.80
2016,07,19,07,07,15.80
2016,07,19,07,08,15.80
2016,07,19,07,09,15.80
2016,07,19,07,10,15.80
2016,07,19,07,11,15.90
2016,07,19,07,12,15.90
2016,07,19,07,13,15.90
2016,07,19,07,14,16.00
2016,07,19,07,15,16.00
2016,07,19,07,16,16.10
2016,07,19,07,17,16.10
2016,07,19,07,18,16.20
2016,07,19,07,19,16.30
2016,07,19,07,20,16.30
2016,07,19,07,21,16.40
2016,07,19,07,22,16.40
2016,07,19,07,23,16.50
2016,07,19,07,24,16.50
2016,07,19,07,25,16.50
2016,07,19,07,26,16.60
2016,07,19,07,27,16.60
2016,07,19,07,28,16.60
2016,07,19,07,29,16.70
2016,07,19,07,30,16.70
2016,07,19,07,31,16.80
2016,07,19,07,32,16.80
2016,07,19,07,33,16.80
2016,07,19,07,34,16.90
2016,07,19,07,35,16.90
2016,07,19,07,36,16.90
2016,07,19,07,37,17.00
2016,07,19,07,38,17.00
2016,07,19,07,39,17.00
2016,07,19,07,40,17.10
2016,07,19,07,41,17.10
2016,07,19,07,42,17.10
2016,07,19,07,43,17.10
2016,07,19,07,44,17.10
2016,07,19,07,45,17.20
2016,07,19,07,46,17.20
2016,07,19,07,47,17.30
2016,07,19,07,48,17.30
2016,07,19,07,49,17.40
2016,07,19,07,50,17.50
2016,07,19,07,51,17.50
2016,07,19,07,52,17.60
2016,07,19,07,53,17.70
2016,07,19,07,54,17.80
2016,07,19,07,55,17.80
2016,07,19,07,56,17.80
2016,07,19,07,57,17.90
2016,07,19,07,58,17.90
2016,07,19,07,59,17.90
2016,07,19,08,00,18.00
2016,07,19,08,01,18.00
2016,07,19,08,02,18.00
2016,07,19,08,03,18.00
2016,07,19,08,04,18.00
2016,07,19,08,05,18.00
2016,07,19,08,06,18.00
2016,07,19,08,07,18.10
2016,07,19,08,08,18.10
2016,07,19,08,09,18.10
2016,07,19,08,10,18.20
2016,07,19,08,11,18.20
2016,07,19,08,12,18.30
2016,07,19,08,13,18.40
2016,07,19,08,14,18.50
2016,07,19,08,15,18.50
2016,07,19,08,16,18.50
2016,07,19,08,17,18.60
2016,07,19,08,18,18.60
2016,07,19,08,19,18.60
2016,07,19,08,20,18.60
2016,07,19,08,21,18.60
2016,07,19,08,22,18.60
2016,07,19,08,23,18.50
2016,07,19,08,24,18.50
2016,07,19,08,25,18.50
2016,07,19,08,26,18.50
2016,07,19,08,27,18.50
2016,07,19,08,28,18.50
2016,07,19,08,29,18.50
2016,07,19,08,30,18.50
2016,07,19,08,31,18.50
2016,07,19,08,32,18.50
2016,07,19,08,33,18.40
2016,07,19,08,34,18.40
2016,07,19,08,35,18.30
2016,07,19,08,36,18.30
2016,07,19,08,37,18.20
2016,07,19,08,38,18.20
2016,07,19,08,39,18.20
2016,07,19,08,40,18.30
2016,07,19,08,41,18.30
2016,07,19,08,42,18.30
2016,07,19,08,43,18.30
2016,07,19,08,44,18.30
2016,07,19,08,45,18.30
2016,07,19,08,46,18.30
2016,07,19,08,47,18.30
2016,07,19,08,48,18.30
2016,07,19,08,49,18.30
2016,07,19,08,50,18.40
2016,07,19,08,51,18.50
2016,07,19,08,52,18.50
2016,07,19,08,53,18.60
2016,07,19,08,54,18.70
2016,07,19,08,55,18.80
2016,07,19,08,56,18.80
2016,07,19,08,57,18.80
2016,07,19,08,58,18.90
2016,07,19,08,59,18.90
2016,07,19,09,00,18.90
2016,07,19,09,01,19.00
2016,07,19,09,02,19.00
2016,07,19,09,03,19.00
2016,07,19,09,04,18.90
2016,07,19,09,05,18.90
2016,07,19,09,06,18.90
2016,07,19,09,07,18.80
2016,07,19,09,08,18.80
2016,07,19,09,09,18.80
2016,07,19,09,10,18.80
2016,07,19,09,11,18.70
2016,07,19,09,12,18.70
2016,07,19,09,13,18.70
2016,07,19,09,14,18.70
2016,07,19,09,15,18.80
2016,07,19,09,16,18.80
2016,07,19,09,17,18.90
2016,07,19,09,18,18.90
2016,07,19,09,19,18.90
2016,07,19,09,20,18.90
2016,07,19,09,21,18.90
2016,07,19,09,22,18.90
2016,07,19,09,23,18.90
2016,07,19,09,24,19.00
2016,07,19,09,25,19.00
2016,07,19,09,26,19.00
2016,07,19,09,27,19.00
2016,07,19,09,28,19.00
2016,07,19,09,29,19.00
2016,07,19,09,30,19.00
2016,07,19,09,31,19.00
2016,07,19,09,32,19.10
2016,07,19,09,33,19.10
2016,07,19,09,34,19.10
2016,07,19,09,35,19.10
2016,07,19,09,36,19.10
2016,07,19,09,37,19.10
2016,07,19,09,38,19.10
2016,07,19,09,39,19.10
2016,07,19,09,40,19.20
2016,07,19,09,41,19.20
2016,07,19,09,42,19.30
2016,07,19,09,43,19.40
2016,07,19,09,44,19.50
2016,07,19,09,45,19.60
2016,07,19,09,46,19.70
2016,07,19,09,47,19.80
2016,07,19,09,48,19.80
2016,07,19,09,49,19.80
2016,07,19,09,50,19.80
2016,07,19,09,51,19.80
2016,07,19,09,52,19.80
2016,07,19,09,53,19.80
2016,07,19,09,54,19.80
2016,07,19,09,55,19.80
2016,07,19,09,56,19.80
2016,07,19,09,57,19.80
2016,07,19,09,58,19.80
2016,07,19,09,59,19.90
2016,07,19,10,00,19.80
2016,07,19,10,01,19.80
2016,07,19,10,02,19.80
2016,07,19,10,03,19.80
2016,07,19,10,04,19.70
2016,07,19,10,05,19.70
2016,07,19,10,06,19.70
2016,07,19,10,07,19.70
2016,07,19,10,08,19.70
2016,07,19,10,09,19.70
2016,07,19,10,10,19.80
2016,07,19,10,11,19.80
2016,07,19,10,12,19.90
2016,07,19,10,13,20.00
2016,07,19,10,14,20.10
2016,07,19,10,15,20.10
2016,07,19,10,16,20.10
2016,07,19,10,17,20.10
2016,07,19,10,18,20.10
2016,07,19,10,19,20.10
2016,07,19,10,20,20.20
2016,07,19,10,21,20.20
2016,07,19,10,22,20.20
2016,07,19,10,23,20.30
2016,07,19,10,24,20.30
2016,07,19,10,25,20.30
2016,07,19,10,26,20.30
2016,07,19,10,27,20.20
2016,07,19,10,28,20.20
2016,07,19,10,29,20.20
2016,07,19,10,30,20.20
2016,07,19,10,31,20.20
2016,07,19,10,32,20.10
2016,07,19,10,33,20.10
2016,07,19,10,34,20.00
2016,07,19,10,35,20.00
2016,07,19,10,36,19.90
2016,07,19,10,37,19.90
2016,07,19,10,38,19.90
2016,07,19,10,39,19.90
2016,07,19,10,40,19.90
2016,07,19,10,41,19.80
2016,07,19,10,42,19.80
2016,07,19,10,43,19.80
2016,07,19,10,44,19.80
2016,07,19,10,45,19.80
2016,07,19,10,46,19.80
2016,07,19,10,47,19.80
2016,07,19,10,48,19.80
2016,07,19,10,49,19.80
2016,07,19,10,50,19.90
2016,07,19,10,51,19.90
2016,07,19,10,52,20.00
2016,07,19,10,53,20.00
2016,07,19,10,54,20.10
2016,07,19,10,55,20.10
2016,07,19,10,56,20.10
2016,07,19,10,57,20.20
2016,07,19,10,58,20.20
2016,07,19,10,59,20.20
2016,07,19,11,00,20.20
2016,07,19,11,01,20.20
2016,07,19,11,02,20.20
2016,07,19,11,03,20.20
2016,07,19,11,04,20.10
2016,07,19,11,05,20.10
2016,07,19,11,06,20.10
2016,07,19,11,07,20.00
2016,07,19,11,08,20.10
2016,07,19,11,09,20.10
2016,07,19,11,10,20.10
2016,07,19,11,11,20.10
2016,07,19,11,12,20.10
2016,07,19,11,13,20.10
2016,07,19,11,14,20.20
2016,07,19,11,15,20.20
2016,07,19,11,16,20.10
2016,07,19,11,17,20.10
2016,07,19,11,18,20.10
2016,07,19,11,19,20.10
2016,07,19,11,20,20.10
2016,07,19,11,21,20.10
2016,07,19,11,22,20.10
2016,07,19,11,23,20.00
2016,07,19,11,24,20.00
2016,07,19,11,25,19.90
2016,07,19,11,26,19.90
2016,07,19,11,27,19.80
2016,07,19,11,28,19.80
2016,07,19,11,29,19.80
2016,07,19,11,30,19.80
2016,07,19,11,31,19.80
2016,07,19,11,32,19.80
2016,07,19,11,33,19.80
2016,07,19,11,34,19.80
2016,07,19,11,35,19.70
2016,07,19,11,36,19.70
2016,07,19,11,37,19.70
2016,07,19,11,38,19.60
2016,07,19,11,39,19.60
2016,07,19,11,40,19.60
2016,07,19,11,41,19.60
2016,07,19,11,42,19.70
2016,07,19,11,43,19.70
2016,07,19,11,44,19.70
2016,07,19,11,45,19.70
2016,07,19,11,46,19.70
2016,07,19,11,47,19.70
2016,07,19,11,48,19.70
2016,07,19,11,49,19.70
2016,07,19,11,50,19.70
2016,07,19,11,51,19.70
2016,07,19,11,52,19.70
2016,07,19,11,53,19.80
2016,07,19,11,54,19.80
2016,07,19,11,55,19.80
2016,07,19,11,56,19.80
2016,07,19,11,57,19.80
2016,07,19,11,58,19.80
2016,07,19,11,59,19.80
2016,07,19,12,00,19.90
2016,07,19,12,01,19.90
2016,07,19,12,02,20.00
2016,07,19,12,03,20.10
2016,07,19,12,04,20.20
2016,07,19,12,05,20.20
2016,07,19,12,06,20.30
2016,07,19,12,07,20.30
2016,07,19,12,08,20.40
2016,07,19,12,09,20.50
2016,07,19,12,10,20.50
2016,07,19,12,11,20.60
2016,07,19,12,12,20.70
2016,07,19,12,13,20.70
2016,07,19,12,14,20.80
2016,07,19,12,15,20.80
2016,07,19,12,16,20.90
2016,07,19,12,17,20.80
2016,07,19,12,18,20.80
2016,07,19,12,19,20.80
2016,07,19,12,20,20.80
2016,07,19,12,21,20.70
2016,07,19,12,22,20.80
2016,07,19,12,23,20.80
2016,07,19,12,24,20.80
2016,07,19,12,25,20.80
2016,07,19,12,26,20.80
2016,07,19,12,27,20.80
2016,07,19,12,28,20.80
2016,07,19,12,29,20.80
2016,07,19,12,30,20.80
2016,07,19,12,31,20.80
2016,07,19,12,32,20.80
2016,07,19,12,33,20.80
2016,07,19,12,34,20.80
2016,07,19,12,35,20.80
2016,07,19,12,36,20.80
2016,07,19,12,37,20.80
2016,07,19,12,38,20.80
2016,07,19,12,39,20.80
2016,07,19,12,40,20.80
2016,07,19,12,41,20.80
2016,07,19,12,42,20.70
2016,07,19,12,43,20.70
2016,07,19,12,44,20.60
2016,07,19,12,45,20.60
2016,07,19,12,46,20.60
2016,07,19,12,47,20.50
2016,07,19,12,48,20.50
2016,07,19,12,49,20.40
2016,07,19,12,50,20.40
2016,07,19,12,51,20.30
2016,07,19,12,52,20.30
2016,07,19,12,53,20.30
2016,07,19,12,54,20.30
2016,07,19,12,55,20.30
2016,07,19,12,56,20.20
2016,07,19,12,57,20.20
2016,07,19,12,58,20.20
2016,07,19,12,59,20.20
2016,07,19,13,00,20.20
2016,07,19,13,01,20.20
2016,07,19,13,02,20.30
2016,07,19,13,03,20.30
2016,07,19,13,04,20.30
2016,07,19,13,05,20.20
2016,07,19,13,06,20.20
2016,07,19,13,07,20.20
2016,07,19,13,08,20.20
2016,07,19,13,09,20.20
2016,07,19,13,10,20.10
2016,07,19,13,11,20.10
2016,07,19,13,12,20.10
2016,07,19,13,13,20.10
2016,07,19,13,14,20.10
2016,07,19,13,15,20.10
2016,07,19,13,16,20.10
2016,07,19,13,17,20.10
2016,07,19,13,18,20.00
2016,07,19,13,19,20.00
2016,07,19,13,20,20.00
2016,07,19,13,21,20.00
2016,07,19,13,22,19.90
2016,07,19,13,23,19.90
2016,07,19,13,24,19.90
2016,07,19,13,25,19.90
2016,07,19,13,26,19.90
2016,07,19,13,27,19.80
2016,07,19,13,28,19.80
2016,07,19,13,29,19.80
2016,07,19,13,30,19.80
2016,07,19,13,31,19.80
2016,07,19,13,32,19.80
2016,07,19,13,33,19.80
2016,07,19,13,34,19.70
2016,07,19,13,35,19.70
2016,07,19,13,36,19.70
2016,07,19,13,37,19.60
2016,07,19,13,38,19.60
2016,07,19,13,39,19.60
2016,07,19,13,40,19.60
2016,07,19,13,41,19.50
2016,07,19,13,42,19.40
2016,07,19,13,43,19.40
2016,07,19,13,44,19.40
2016,07,19,13,45,19.40
2016,07,19,13,46,19.30
2016,07,19,13,47,19.30
2016,07,19,13,48,19.30
2016,07,19,13,49,19.30
2016,07,19,13,50,19.30
2016,07,19,13,51,19.30
2016,07,19,13,52,19.30
2016,07,19,13,53,19.30
2016,07,19,13,54,19.30
2016,07,19,13,55,19.30
2016,07,19,13,56,19.30
2016,07,19,13,57,19.30
2016,07,19,13,58,19.30
2016,07,19,13,59,19.30
2016,07,19,14,00,19.30
2016,07,19,14,01,19.30
2016,07,19,14,02,19.40
2016,07,19,14,03,19.40
2016,07,19,14,04,19.40
2016,07,19,14,05,19.40
2016,07,19,14,06,19.40
2016,07,19,14,07,19.40
2016,07,19,14,08,19.40
2016,07,19,14,09,19.40
2016,07,19,14,10,19.40
2016,07,19,14,11,19.40
2016,07,19,14,12,19.40
2016,07,19,14,13,19.40
2016,07,19,14,14,19.40
2016,07,19,14,15,19.40
2016,07,19,14,16,19.40
2016,07,19,14,17,19.50
2016,07,19,14,18,19.50
2016,07,19,14,19,19.50
2016,07,19,14,20,19.50
2016,07,19,14,21,19.50
2016,07,19,14,22,19.50
2016,07,19,14,23,19.50
2016,07,19,14,24,19.60
2016,07,19,14,25,19.60
2016,07,19,14,26,19.60
2016,07,19,14,27,19.60
2016,07,19,14,28,19.70
2016,07,19,14,29,19.70
2016,07,19,14,30,19.70
2016,07,19,14,31,19.80
2016,07,19,14,32,19.80
2016,07,19,14,33,19.80
2016,07,19,14,34,19.80
2016,07,19,14,35,19.80
2016,07,19,14,36,19.80
2016,07,19,14,37,19.80
2016,07,19,14,38,19.80
2016,07,19,14,39,19.90
2016,07,19,14,40,19.90
2016,07,19,14,41,19.90
2016,07,19,14,42,19.90
2016,07,19,14,43,20.00
2016,07,19,14,44,20.00
2016,07,19,14,45,20.10
2016,07,19,14,46,20.10
2016,07,19,14,47,20.20
2016,07,19,14,48,20.20
2016,07,19,14,49,20.30
2016,07,19,14,50,20.30
2016,07,19,14,51,20.40
2016,07,19,14,52,20.50
2016,07,19,14,53,20.50
2016,07,19,14,54,20.60
2016,07,19,14,55,20.60
2016,07,19,14,56,20.60
2016,07,19,14,57,20.70
2016,07,19,14,58,20.70
2016,07,19,14,59,20.70
2016,07,19,15,00,20.70
2016,07,19,15,01,20.80
2016,07,19,15,02,20.80
2016,07,19,15,03,20.80
2016,07,19,15,04,20.80
2016,07,19,15,05,20.80
2016,07,19,15,06,20.80
2016,07,19,15,07,20.80
2016,07,19,15,08,20.80
2016,07,19,15,09,20.80
2016,07,19,15,10,20.80
2016,07,19,15,11,20.80
2016,07,19,15,12,20.80
2016,07,19,15,13,20.80
2016,07,19,15,14,20.90
2016,07,19,15,15,20.90
2016,07,19,15,16,20.90
2016,07,19,15,17,20.90
2016,07,19,15,18,21.00
2016,07,19,15,19,21.00
2016,07,19,15,20,21.00
2016,07,19,15,21,20.90
2016,07,19,15,22,20.90
2016,07,19,15,23,20.90
2016,07,19,15,24,20.90
2016,07,19,15,25,20.80
2016,07,19,15,26,20.80
2016,07,19,15,27,20.80
2016,07,19,15,28,20.80
2016,07,19,15,29,20.80
2016,07,19,15,30,20.80
2016,07,19,15,31,20.80
2016,07,19,15,32,20.80
2016,07,19,15,33,20.80
2016,07,19,15,34,20.80
2016,07,19,15,35,20.80
2016,07,19,15,36,20.80
2016,07,19,15,37,20.80
2016,07,19,15,38,20.70
2016,07,19,15,39,20.70
2016,07,19,15,40,20.70
2016,07,19,15,41,20.70
2016,07,19,15,42,20.70
2016,07,19,15,43,20.70
2016,07,19,15,44,20.70
2016,07,19,15,45,20.70
2016,07,19,15,46,20.70
2016,07,19,15,47,20.70
2016,07,19,15,48,20.70
2016,07,19,15,49,20.80
2016,07,19,15,50,20.80
2016,07,19,15,51,20.80
2016,07,19,15,52,20.80
2016,07,19,15,53,20.90
2016,07,19,15,54,20.90
2016,07,19,15,55,20.90
2016,07,19,15,56,20.90
2016,07,19,15,57,20.80
2016,07,19,15,58,20.80
2016,07,19,15,59,20.80
2016,07,19,16,00,20.70
2016,07,19,16,01,20.70
2016,07,19,16,02,20.70
2016,07,19,16,03,20.80
2016,07,19,16,04,20.80
2016,07,19,16,05,20.80
2016,07,19,16,06,20.80
2016,07,19,16,07,20.80
2016,07,19,16,08,20.80
2016,07,19,16,09,20.80
2016,07,19,16,10,20.80
2016,07,19,16,11,20.80
2016,07,19,16,12,20.80
2016,07,19,16,13,20.70
2016,07,19,16,14,20.70
2016,07,19,16,15,20.70
2016,07,19,16,16,20.70
2016,07,19,16,17,20.70
2016,07,19,16,18,20.70
2016,07,19,16,19,20.70
2016,07,19,16,20,20.70
2016,07,19,16,21,20.70
2016,07,19,16,22,20.70
2016,07,19,16,23,20.70
2016,07,19,16,24,20.70
2016,07,19,16,25,20.70
2016,07,19,16,26,20.70
2016,07,19,16,27,20.70
2016,07,19,16,28,20.70
2016,07,19,16,29,20.70
2016,07,19,16,30,20.70
2016,07,19,16,31,20.70
2016,07,19,16,32,20.70
2016,07,19,16,33,20.80
2016,07,19,16,34,20.80
2016,07,19,16,35,20.80
2016,07,19,16,36,20.80
2016,07,19,16,37,20.80
2016,07,19,16,38,20.80
2016,07,19,16,39,20.80
2016,07,19,16,40,20.80
2016,07,19,16,41,20.80
2016,07,19,16,42,20.80
2016,07,19,16,43,20.80
2016,07,19,16,44,20.80
2016,07,19,16,45,20.80
2016,07,19,16,46,20.80
2016,07,19,16,47,20.80
2016,07,19,16,48,20.80
2016,07,19,16,49,20.80
2016,07,19,16,50,20.80
2016,07,19,16,51,20.80
2016,07,19,16,52,20.90
2016,07,19,16,53,20.90
2016,07,19,16,54,20.90
2016,07,19,16,55,20.90
2016,07,19,16,56,20.90
2016,07,19,16,57,20.90
2016,07,19,16,58,20.90
2016,07,19,16,59,20.90
2016,07,19,17,00,20.90
2016,07,19,17,01,20.90
2016,07,19,17,02,20.90
2016,07,19,17,03,20.90
2016,07,19,17,04,20.90
2016,07,19,17,05,20.90
2016,07,19,17,06,20.90
2016,07,19,17,07,21.00
2016,07,19,17,08,21.00
2016,07,19,17,09,21.00
2016,07,19,17,10,21.00
2016,07,19,17,11,21.00
2016,07,19,17,12,21.00
2016,07,19,17,13,21.00
2016,07,19,17,14,20.90
2016,07,19,17,15,20.90
2016,07,19,17,16,20.90
2016,07,19,17,17,21.00
2016,07,19,17,18,21.10
2016,07,19,17,19,21.10